Flag for Brazil Weather past 2 weeks in Curitiba, Paraná, Brazil

Now
73 °F

Partly sunny.


Feels Like: 75 °F
Forecast: 66 / 74 °F
Wind: 7 mph from North

Location: Curitiba Aeroporto

Current Time: Mar 6, 2015 at 12:16:59 PM

Latest Report: Mar 6, 2015 at 11:00 AM


Visibility: 4 mi

Pressure: 30.07 "Hg

Humidity: 74%

Dew point: 64 °F

Location of CuritibaLocation

Historic Weather in Curitiba — Graph

°F

Curitiba temperature yesterday

Maximum temperature yesterday: 82 °F (at 3:00 PM)
Minimum temperature yesterday: 32 °F (at 7:00 PM)
Average temperature yesterday: 69 °F

Past Weeks' High & Low Weather Summary

 TemperatureHumidityPressure
High86 °F (Feb 27, 2:00 PM)100% (Feb 21, 5:00 AM)30.24 "Hg (Feb 21, 5:00 AM)
Low32 °F (Mar 5, 7:00 PM)38% (Feb 27, 2:00 PM)29.86 "Hg (Feb 19, 4:00 PM)
Average70 °F80%30.11 "Hg
* Reported Feb 19 12:00 Noon — Mar 6 11:00 AM, Curitiba, Weather by CustomWeather, © 2015

Note: Actual official high and low records may vary slightly from our data, if they occured in-between our weather recording intervals... More about our weather records

Advertising

Curitiba weather history for previous 24 hours

 ConditionsComfort  
Time TempWeatherWind HumidityBarometerVisibility
11:00 AM
Fri, Mar 6
73 °FPartly sunny.7 mph74%30.07 "Hg4 mi
10:00 AM72 °FPartly sunny.6 mph83%30.07 "Hg4 mi
9:00 AM70 °FFog.5 mph88%30.07 "Hg2 mi
8:00 AM68 °FFog.2 mph94%30.07 "Hg2 mi
7:00 AM68 °FFog.2 mph94%30.04 "Hg2 mi
6:00 AM66 °FBroken clouds.2 mph94%30.01 "HgN/A
5:00 AM66 °FPartly cloudy.3 mph94%30.01 "HgN/A
4:00 AM66 °FMostly cloudy.3 mph94%30.01 "HgN/A
3:00 AM66 °FMostly cloudy.No wind94%30.04 "HgN/A
2:00 AM66 °FPartly cloudy.No wind94%30.04 "HgN/A
1:00 AM66 °FPartly cloudy.No wind94%30.04 "HgN/A
12:00 AM66 °FPassing clouds.No wind94%30.07 "HgN/A
11:00 PM
Thu, Mar 5
66 °FLight rain. Mostly cloudy.2 mph94%30.07 "HgN/A
10:00 PM66 °FLight rain. Mostly cloudy.2 mph94%30.09 "HgN/A
9:00 PM66 °FRain. Mostly cloudy.5 mph94%30.07 "Hg5 mi
8:00 PM68 °FHeavy rain. Mostly cloudy.6 mph88%30.07 "Hg2 mi
7:00 PM32 °FStrong thunderstorms. Mostly cloudy.5 mph100%30.07 "Hg2 mi
6:00 PM68 °FScattered showers. Fog.6 mph94%30.04 "Hg2 mi
5:00 PMN/AThunderstorms.5 mphN/AN/A2 mi
4:00 PM73 °FScattered showers. Partly sunny.9 mph69%N/AN/A
3:00 PM82 °FPartly sunny.5 mph51%30.01 "HgN/A
2:00 PM81 °FPartly sunny.8 mph62%30.04 "HgN/A
1:00 PM79 °FPartly sunny.10 mph61%30.07 "HgN/A
12:00 PM81 °FBroken clouds.7 mph62%30.07 "HgN/A
Weather by CustomWeather, © 2015

See weather overviewHow to use our weather pages